[[{"header":{"parameterUnit":"m.s-1","parameterCategory":1,"la1":30.2991,"la2":30.254,"lo1":-89.0895,"lo2":-89.0444,"dy":0.0017,"dx":0.0017,"nx":28,"ny":28,"refTime":"2024-10-12T09:00:00:Z","depth":0,"parameterNumber":2,"parameterNumberName":"U-component_of_WINDS"},"data":[0,0,0,0,0,0,0,0,0,0,0,0,0,0,0,0,0,0,0,0,0,0,0,0,0,0,0,0,0,0,0,0,0,0,0,0,0,0,0,0,0,0,0,0,0,0,0,0,0,0,0,0,0,0,0,0,0,0,-1.1631,-1.1632,0,-1.1738,-1.1739,-1.174,-1.1728,-1.1726,-1.1724,-1.1723,-1.1834,-1.1838,-1.1842,0,0,0,0,0,0,0,0,0,0,0,0,0,-1.1417,-1.1421,-1.1631,-1.1632,-1.1633,-1.1737,-1.1739,-1.174,-1.1728,-1.1726,-1.1724,-1.1722,-1.1832,-1.1837,-1.1843,0,0,0,0,0,0,0,0,0,0,0,0,0,-1.1516,-1.1423,-1.163,-1.164,-1.1642,-1.1737,-1.1739,-1.1741,-1.1729,-1.1726,-1.1723,-1.1721,-1.183,-1.1837,-1.1844,-1.1937,0,0,-1.1864,-1.1867,0,0,0,0,0,0,0,0,-1.151,-1.1524,-1.1637,-1.1639,-1.1642,-1.1717,-1.1704,-1.1807,-1.1729,-1.1696,-1.1723,-1.172,-1.1797,-1.1806,-1.1832,-1.1942,-1.1947,-1.1865,-1.1869,-1.1872,-1.1874,0,0,0,0,0,0,0,-1.1503,-1.1519,-1.1673,-1.1639,-1.1641,-1.1639,-1.165,-1.1724,-1.1759,-1.1698,-1.1698,-1.171,-1.1798,-1.1825,-1.1834,-1.1949,-1.1865,-1.1871,-1.1875,-1.1878,-1.2142,-1.2144,0,0,0,0,0,0,-1.1494,-1.1513,-1.1669,-1.1676,-1.1568,-1.1645,-1.1657,-1.1695,-1.1758,-1.1766,-1.1712,-1.1709,-1.1815,-1.1827,-1.1838,-1.1952,-1.1872,-1.1878,-1.1882,-1.2139,-1.2142,-1.2145,0,0,0,0,0,0,-1.149,-1.1508,-1.1665,-1.1595,-1.1614,-1.1651,-1.1694,-1.1699,-1.1726,-1.1769,-1.1776,-1.1734,-1.1813,-1.1829,-1.1913,-1.1956,-1.1882,-1.1888,-1.2135,-1.214,-1.2144,-1.2181,0,0,0,0,0,0,-1.1484,-1.1507,-1.1542,-1.1596,-1.1618,-1.1737,-1.1697,-1.1703,-1.1738,-1.1735,-1.1791,-1.1798,-1.1813,-1.1903,-1.1919,-1.1964,-1.1893,-1.2132,-1.2137,-1.2142,-1.2176,-1.2186,-1.2194,0,0,0,0,0,-1.1476,-1.1548,-1.1544,-1.1563,-1.1663,-1.174,-1.1753,-1.1768,-1.1742,-1.1778,-1.1805,-1.1796,-1.1948,-1.1911,-1.193,-1.1977,-1.2129,-1.2136,-1.2142,-1.2171,-1.2184,-1.2194,0,0,0,0,0,0,-1.1499,-1.1555,-1.1551,-1.1643,-1.1687,-1.1738,-1.1784,-1.178,-1.1832,-1.1827,-1.1844,-1.1857,-1.1942,-1.1968,-1.1925,-1.2071,-1.2035,-1.2046,-1.2051,-1.2063,-1.2072,-1.2064,-1.1899,0,0,0,0,0,-1.1515,-1.1572,-1.1618,-1.1695,-1.1717,-1.1747,-1.178,-1.1788,-1.1834,-1.1853,-1.1886,-1.1932,-1.199,-1.2028,-1.2084,-1.2179,-1.2192,-1.2221,-1.223,-1.2238,-1.2247,-1.23,-1.2314,-1.2167,-1.2167,-1.2167,0,0,-1.1548,-1.1586,-1.1621,-1.17,-1.1735,-1.1794,-1.1762,-1.1826,-1.187,-1.1863,-1.1944,-1.197,-1.2022,-1.2113,-1.2154,-1.2137,-1.229,-1.2246,-1.2252,-1.2257,-1.2308,-1.2322,-1.2335,-1.2171,-1.2171,-1.217,0,0,-1.1639,-1.1673,-1.1741,-1.1776,-1.1829,-1.1849,-1.1865,-1.1917,-1.1934,-1.2016,-1.2011,-1.2064,-1.2164,-1.2201,-1.2233,-1.2339,-1.2333,-1.2357,-1.2405,-1.2457,-1.2469,-1.2479,-1.2517,-1.253,-1.2366,-1.2366,-1.2366,0,-1.1674,-1.1762,-1.1776,-1.1841,-1.1876,-1.1872,-1.1941,-1.1975,-1.2043,-1.2068,-1.2048,-1.2173,-1.2208,-1.2307,-1.2333,-1.2359,-1.2378,-1.235,-1.2466,-1.2476,-1.2486,-1.2523,-1.2537,-1.2368,-1.2368,-1.2368,-1.2368,0,-1.1802,-1.1864,-1.1912,-1.1979,-1.2019,-1.2086,-1.211,-1.215,-1.2154,-1.2176,-1.226,-1.2301,-1.2366,-1.239,-1.2395,-1.249,-1.2478,-1.2462,-1.2426,-1.2502,-1.2537,-1.2551,-1.2372,-1.2371,-1.237,-1.237,0,0,-1.1911,-1.1984,-1.2001,-1.2032,-1.209,-1.2138,-1.2205,-1.2267,-1.2301,-1.2349,-1.2406,-1.249,-1.2476,-1.2512,-1.2521,-1.2567,-1.2648,-1.2545,-1.2547,-1.2563,-1.2757,-1.2769,-1.2785,-1.2645,-1.2647,-1.265,-1.2753,0,-1.2007,-1.2125,-1.2139,-1.2244,-1.2301,-1.2298,-1.2356,-1.2399,-1.2421,-1.2474,-1.2498,-1.2558,-1.2534,-1.2556,-1.2601,-1.2629,-1.2688,-1.2622,-1.2698,-1.2701,-1.2685,-1.2803,-1.2816,-1.2911,-1.2766,-1.2768,-1.277,0,-1.2136,-1.2187,-1.2297,-1.2348,-1.2373,-1.2424,-1.2483,-1.2533,-1.2582,-1.2595,-1.2636,-1.2639,-1.2709,-1.267,-1.2767,-1.2722,-1.2754,-1.2773,-1.2777,-1.2784,-1.274,-1.2814,-1.2941,-1.2956,-1.2792,-1.279,-1.2788,0,-1.2204,-1.23,-1.2379,-1.2405,-1.2466,-1.2503,-1.253,-1.2576,-1.2613,-1.2665,-1.2689,-1.2748,-1.2781,-1.2827,-1.2846,-1.2816,-1.2942,-1.2905,-1.2956,-1.2955,-1.2982,-1.298,-1.3117,-1.3003,-1.3003,-1.3002,-1.3002,0,-1.231,-1.2378,-1.241,-1.2458,-1.2534,-1.2551,-1.2626,-1.2652,-1.2693,-1.2747,-1.2748,-1.2798,-1.2821,-1.2876,-1.2892,-1.297,-1.2984,-1.2997,-1.3001,-1.2997,-1.2996,-1.3019,-1.3013,-1.3006,-1.3005,-1.3005,-1.3004,0,-1.2399,-1.2423,-1.2509,-1.256,-1.2574,-1.2628,-1.2672,-1.2719,-1.2741,-1.2809,-1.2826,-1.2861,-1.2925,-1.2949,-1.3028,-1.3039,-1.3129,-1.3127,-1.3112,-1.3113,-1.3163,-1.3158,-1.3319,-1.3341,-1.3212,-1.3213,-1.3214,0,-1.2465,-1.2517,-1.2574,-1.261,-1.2639,-1.2696,-1.2734,-1.2753,-1.2792,-1.2852,-1.2892,-1.2956,-1.3008,-1.311,-1.3143,-1.3203,-1.3203,-1.3255,-1.3212,-1.3207,-1.3204,-1.3201,-1.3206,-1.3263,-1.3264,-1.3265,-1.3266,0,-1.2581,-1.259,-1.2644,-1.2703,-1.2747,-1.2795,-1.284,-1.287,-1.2896,-1.294,-1.3005,-1.3046,-1.3126,-1.3189,-1.3251,-1.328,-1.3278,-1.328,-1.3295,-1.3292,-1.3281,-1.3288,-1.3134,-1.3276,-1.3275,-1.3274,-1.3274,-1.3273,-1.266,-1.2706,-1.2754,-1.2814,-1.285,-1.2893,-1.294,-1.2968,-1.3023,-1.3089,-1.3097,-1.3168,-1.3216,-1.3298,-1.333,-1.3386,-1.3372,-1.3394,-1.3399,-1.3404,-1.3408,-1.3272,-1.3397,-1.3397,-1.3397,-1.3397,-1.3396,0,-1.2776,-1.2806,-1.2861,-1.2925,-1.2973,-1.2966,-1.3017,-1.3057,-1.3119,-1.3164,-1.3215,-1.3291,-1.3353,-1.339,-1.3453,-1.349,-1.3491,-1.3506,-1.3503,-1.351,-1.3417,-1.3397,-1.3504,-1.3504,-1.3504,-1.3504,-1.3504,-1.3504,-1.2841,-1.2919,-1.2934,-1.3031,-1.3061,-1.3129,-1.3159,-1.3199,-1.3235,-1.3319,-1.337,-1.3394,-1.3437,-1.3502,-1.3559,-1.3568,-1.3591,-1.3608,-1.3616,-1.3528,-1.3517,-1.3506,-1.3488,-1.3613,-1.3613,-1.3705,-1.3706,-1.3707]},{"header":{"parameterUnit":"m.s-1","parameterCategory":1,"la1":30.2991,"la2":30.254,"lo1":-89.0895,"lo2":-89.0444,"dy":0.0017,"dx":0.0017,"nx":28,"ny":28,"refTime":"2024-10-12T09:00:00:Z","depth":0,"parameterNumber":3,"parameterNumberName":"V-component_of_WINDS"},"data":[0,0,0,0,0,0,0,0,0,0,0,0,0,0,0,0,0,0,0,0,0,0,0,0,0,0,0,0,0,0,0,0,0,0,0,0,0,0,0,0,0,0,0,0,0,0,0,0,0,0,0,0,0,0,0,0,0,0,-2.3122,-2.3123,0,-2.3189,-2.3189,-2.319,-2.3209,-2.3209,-2.3208,-2.3208,-2.3273,-2.3275,-2.3277,0,0,0,0,0,0,0,0,0,0,0,0,0,-2.3007,-2.3009,-2.3122,-2.3123,-2.3123,-2.3189,-2.3189,-2.319,-2.3209,-2.3209,-2.3208,-2.3208,-2.3272,-2.3274,-2.3277,0,0,0,0,0,0,0,0,0,0,0,0,0,-2.3063,-2.301,-2.3122,-2.3141,-2.3143,-2.3188,-2.3189,-2.3191,-2.3209,-2.3209,-2.3208,-2.3208,-2.3271,-2.3274,-2.3277,-2.3307,0,0,-2.3287,-2.3288,0,0,0,0,0,0,0,0,-2.306,-2.3068,-2.3137,-2.314,-2.3142,-2.319,-2.3173,-2.3229,-2.3209,-2.3184,-2.3208,-2.3207,-2.3245,-2.3251,-2.3264,-2.331,-2.3313,-2.3287,-2.3289,-2.329,-2.3291,0,0,0,0,0,0,0,-2.3056,-2.3065,-2.3148,-2.3138,-2.3141,-2.3145,-2.3152,-2.3183,-2.3217,-2.3186,-2.3188,-2.3196,-2.3247,-2.3261,-2.3266,-2.3314,-2.3287,-2.329,-2.3291,-2.3293,-2.3387,-2.3387,0,0,0,0,0,0,-2.305,-2.3061,-2.3146,-2.315,-2.3099,-2.3147,-2.3156,-2.3175,-2.3217,-2.3222,-2.3196,-2.3196,-2.3256,-2.3262,-2.3268,-2.3305,-2.329,-2.3293,-2.3295,-2.3386,-2.3387,-2.3387,0,0,0,0,0,0,-2.3047,-2.3057,-2.3143,-2.3106,-2.3118,-2.315,-2.3172,-2.3177,-2.3191,-2.3224,-2.323,-2.3205,-2.3256,-2.3264,-2.3297,-2.3308,-2.3294,-2.3297,-2.3385,-2.3386,-2.3387,-2.338,0,0,0,0,0,0,-2.3044,-2.3056,-2.3068,-2.3106,-2.312,-2.3172,-2.3172,-2.3178,-2.3197,-2.3198,-2.3234,-2.3239,-2.3256,-2.3293,-2.33,-2.3312,-2.33,-2.3384,-2.3386,-2.3387,-2.3379,-2.338,-2.3381,0,0,0,0,0,-2.3039,-2.3063,-2.3069,-2.3079,-2.3136,-2.3173,-2.318,-2.32,-2.3198,-2.321,-2.3231,-2.3238,-2.3306,-2.3296,-2.3305,-2.3317,-2.3384,-2.3385,-2.3387,-2.3379,-2.338,-2.3381,0,0,0,0,0,0,-2.3024,-2.3068,-2.3075,-2.3112,-2.3139,-2.3176,-2.3192,-2.3201,-2.3228,-2.3228,-2.3251,-2.3258,-2.329,-2.3307,-2.3296,-2.3348,-2.3345,-2.3348,-2.3335,-2.3337,-2.3338,-2.3333,-2.3302,0,0,0,0,0,-2.3025,-2.3053,-2.3089,-2.3118,-2.3131,-2.3159,-2.3176,-2.319,-2.3218,-2.3229,-2.3252,-2.3278,-2.3305,-2.3322,-2.3349,-2.3382,-2.3389,-2.3395,-2.3396,-2.3397,-2.3399,-2.3417,-2.3419,-2.3392,-2.3392,-2.3392,0,0,-2.3027,-2.3055,-2.307,-2.3116,-2.3138,-2.3165,-2.3169,-2.3197,-2.3217,-2.3232,-2.3266,-2.3284,-2.3314,-2.3347,-2.3363,-2.3362,-2.3408,-2.3398,-2.3399,-2.3401,-2.3419,-2.3421,-2.3423,-2.3393,-2.3393,-2.3393,0,0,-2.3044,-2.3069,-2.3095,-2.3117,-2.3152,-2.317,-2.3176,-2.3213,-2.3225,-2.326,-2.3272,-2.3295,-2.3341,-2.3362,-2.3379,-2.3404,-2.3411,-2.3412,-2.3417,-2.3435,-2.3437,-2.3439,-2.3447,-2.345,-2.3415,-2.3415,-2.3415,0,-2.3042,-2.3084,-2.3107,-2.3135,-2.3154,-2.3171,-2.3197,-2.3217,-2.3258,-2.327,-2.3269,-2.3327,-2.3349,-2.3387,-2.3393,-2.3407,-2.3414,-2.3408,-2.3435,-2.3437,-2.3439,-2.3447,-2.3451,-2.3414,-2.3415,-2.3415,-2.3415,0,-2.3079,-2.3108,-2.3125,-2.3165,-2.3186,-2.3213,-2.3239,-2.3257,-2.3269,-2.3287,-2.3321,-2.3348,-2.338,-2.339,-2.3401,-2.343,-2.3428,-2.3431,-2.3428,-2.3441,-2.3449,-2.3453,-2.3414,-2.3414,-2.3414,-2.3414,0,0,-2.3088,-2.3141,-2.3146,-2.3165,-2.3204,-2.3226,-2.3253,-2.3286,-2.33,-2.3328,-2.335,-2.3389,-2.3392,-2.3411,-2.3425,-2.344,-2.3458,-2.3441,-2.3442,-2.3442,-2.349,-2.3487,-2.349,-2.3463,-2.3464,-2.3464,-2.3487,0,-2.311,-2.316,-2.3181,-2.3221,-2.3248,-2.3264,-2.3288,-2.3314,-2.3331,-2.3356,-2.3375,-2.3402,-2.3404,-2.3416,-2.3432,-2.3452,-2.3467,-2.3451,-2.3483,-2.3484,-2.3474,-2.3494,-2.3491,-2.3511,-2.349,-2.3491,-2.3491,0,-2.3141,-2.317,-2.3213,-2.3249,-2.326,-2.3281,-2.3313,-2.3336,-2.3365,-2.3377,-2.3399,-2.3412,-2.3439,-2.3436,-2.3474,-2.3462,-2.3476,-2.3488,-2.349,-2.3493,-2.3487,-2.3497,-2.3518,-2.3521,-2.3496,-2.3496,-2.3495,0,-2.3142,-2.3191,-2.3224,-2.3239,-2.3281,-2.3295,-2.3313,-2.3342,-2.336,-2.3388,-2.3399,-2.3429,-2.3445,-2.3467,-2.3487,-2.3483,-2.3523,-2.3521,-2.3533,-2.3532,-2.354,-2.3539,-2.3563,-2.355,-2.355,-2.355,-2.355,0,-2.3163,-2.3189,-2.3225,-2.3244,-2.3273,-2.3297,-2.3324,-2.3343,-2.3368,-2.3391,-2.3407,-2.3428,-2.3454,-2.3477,-2.3493,-2.3522,-2.3529,-2.3539,-2.3542,-2.3537,-2.3535,-2.3546,-2.3544,-2.3551,-2.3551,-2.3551,-2.3551,0,-2.3169,-2.3194,-2.323,-2.3267,-2.3277,-2.3297,-2.3328,-2.3347,-2.3366,-2.3395,-2.3403,-2.3432,-2.3461,-2.3484,-2.3521,-2.3531,-2.3561,-2.3566,-2.3552,-2.3553,-2.3563,-2.3562,-2.3594,-2.3599,-2.3584,-2.3584,-2.3584,0,-2.318,-2.32,-2.324,-2.3257,-2.3276,-2.3303,-2.3322,-2.3346,-2.3364,-2.3399,-2.3414,-2.3444,-2.3469,-2.3514,-2.3538,-2.3566,-2.3571,-2.3581,-2.3575,-2.3569,-2.357,-2.3568,-2.357,-2.3581,-2.3581,-2.3581,-2.3581,0,-2.3197,-2.3209,-2.3236,-2.3268,-2.329,-2.3316,-2.3342,-2.3355,-2.3383,-2.3404,-2.3434,-2.3454,-2.3492,-2.3521,-2.3552,-2.357,-2.358,-2.3583,-2.3587,-2.358,-2.3571,-2.3576,-2.3552,-2.3581,-2.3581,-2.3581,-2.3581,-2.3581,-2.3206,-2.3224,-2.3255,-2.3285,-2.3307,-2.3331,-2.3351,-2.3373,-2.3399,-2.3433,-2.3445,-2.3476,-2.3504,-2.3547,-2.3565,-2.3588,-2.3589,-2.3595,-2.3596,-2.3597,-2.3596,-2.3568,-2.3594,-2.3594,-2.3594,-2.3594,-2.3594,0,-2.3223,-2.3244,-2.3271,-2.3308,-2.3331,-2.334,-2.3369,-2.3387,-2.3415,-2.3441,-2.3466,-2.35,-2.3529,-2.3555,-2.3585,-2.3599,-2.3604,-2.3605,-2.3604,-2.3608,-2.3594,-2.3588,-2.3601,-2.3601,-2.3601,-2.3601,-2.3601,-2.3601,-2.3235,-2.3266,-2.3281,-2.3324,-2.3345,-2.3376,-2.3392,-2.3413,-2.3434,-2.3473,-2.3497,-2.3514,-2.354,-2.3572,-2.3598,-2.3605,-2.3615,-2.3615,-2.3623,-2.361,-2.3609,-2.3608,-2.3602,-2.3617,-2.3617,-2.3634,-2.3635,-2.3635]}]]